Location: Antin
(43.3330°N, 0.2804°E)
Time: 12:37:37
(UTC+00:00)

SME Rocket - Visible Passes

Search period start: 09 December 2023 00:00
Search period end: 19 December 2023 00:00
Orbit: 550 x 2645 km, 99.9° (Epoch: 08 December)

Date Brightness Start Highest point End Pass type
(mag) Time Alt. Az. Time Alt. Az. Time Alt. Az.
09 Dec 7.3 06:30:03 10° NNE 06:42:46 45° E 06:56:10 10° SSE visible
09 Dec 4.8 17:52:33 10° SE 17:58:24 45° ENE 18:07:10 10° N visible
09 Dec 5.8 19:49:40 10° SSW 19:55:02 35° W 20:02:53 10° NNW visible
10 Dec 7.6 06:09:16 10° NNE 06:21:30 37° E 06:34:08 10° SSE visible
10 Dec 5.2 17:31:42 10° ESE 17:37:33 35° NE 17:46:00 10° N visible
10 Dec 5.3 19:27:37 10° S 19:33:23 48° W 19:42:11 10° NNW visible
11 Dec 7.9 05:48:41 10° NNE 06:00:08 29° E 06:11:45 10° SE visible
11 Dec 5.5 17:11:01 10° ESE 17:16:48 28° NE 17:24:47 10° N visible
11 Dec 4.8 19:05:51 10° S 19:11:53 67° W 19:21:22 10° NNW visible
12 Dec 8.0 05:28:22 10° NE 05:38:37 23° E 05:48:55 10° SE visible
12 Dec 5.9 16:50:34 10° E 16:56:11 23° NE 17:03:32 10° N visible
12 Dec 4.6 18:44:17 10° SSE 18:50:31 88° WSW 19:00:27 10° NNW visible
12 Dec 7.0 20:45:21 10° WSW 20:49:13 15° WNW 20:53:56 10° NW visible
13 Dec 8.1 05:08:30 10° NE 05:16:58 18° E 05:25:24 10° ESE visible
13 Dec 4.6 18:22:56 10° SSE 18:29:21 72° ENE 18:39:27 10° NNW visible
13 Dec 6.6 20:22:09 10° SW 20:27:15 22° W 20:34:06 10° NNW visible
14 Dec 8.3 04:49:41 10° NE 04:55:09 13° ENE 05:00:35 10° E visible
14 Dec 7.1 06:40:28 10° NNE 06:54:03 52° E 07:07:30 10° S visible
14 Dec 4.8 18:01:45 10° SE 18:08:19 56° ENE 18:18:25 10° N visible
14 Dec 6.2 19:59:35 10° SSW 20:05:25 31° W 20:13:45 10° NNW visible
15 Dec 7.4 06:19:39 10° NNE 06:32:49 43° E 06:45:39 10° SSE visible
15 Dec 5.1 17:40:46 10° SE 17:47:26 45° ENE 17:57:20 10° N visible
15 Dec 5.8 19:37:24 10° SSW 19:43:42 43° W 19:53:10 10° NNW visible
16 Dec 7.7 05:58:58 10° NNE 06:11:27 35° E 06:23:30 10° SSE visible
16 Dec 5.5 17:19:57 10° ESE 17:26:40 36° NE 17:36:13 10° N visible
16 Dec 5.3 19:15:29 10° S 19:22:08 57° W 19:32:26 10° NNW visible
17 Dec 7.9 05:38:29 10° NNE 05:49:58 28° E 06:00:58 10° SE visible
17 Dec 5.8 16:59:22 10° ESE 17:06:01 30° NE 17:15:04 10° N visible
17 Dec 5.0 18:53:49 10° S 19:00:43 75° WSW 19:11:35 10° NNW visible
17 Dec 7.2 20:55:55 10° WSW 20:59:49 14° WNW 21:04:26 10° NW visible
18 Dec 8.1 05:18:18 10° NE 05:28:20 22° E 05:37:56 10° SE visible
18 Dec 4.9 18:32:20 10° SSE 18:39:28 86° ENE 18:50:40 10° NNW visible
18 Dec 6.9 20:32:23 10° SW 20:37:48 20° WNW 20:44:53 10° NW visible
